Fort Smith, AR

6:27 AM CDT on March 29, 2017 (GMT -0500)
Fort Smith Regional

Weather History for KFSM - September, 2012

Change the Weather History Date:

Thursday, September 6, 2012

  Actual Average Record
Temperature  
Mean Temperature 90 °F 78 °F  
Max Temperature 105 °F 89 °F 106 °F (1947)
Min Temperature 75 °F 66 °F 47 °F (1974)
Degree Days  
Heating Degree Days 0 0  
Month to date heating degree days 0 0  
Since 1 July heating degree days 0 0  
Cooling Degree Days 25 13  
Month to date cooling degree days 143 81  
Year to date cooling degree days 2559 1776  
Growing Degree Days 40 (Base 50)    
Moisture  
Dew Point 68 °F    
Average Humidity 56    
Maximum Humidity 87    
Minimum Humidity 24    
Precipitation  
Precipitation 0.09 in 0.13 in 1.24 in (1943)
Month to date precipitation 0.09 0.73  
Year to date precipitation 26.55 30.09  
Sea Level Pressure  
Sea Level Pressure 29.85 in    
Wind  
Wind Speed 6 mph (ENE)    
Max Wind Speed 29 mph    
Max Gust Speed 41 mph    
Visibility 10 miles    
Events Rain    
T = Trace of Precipitation, MM = Missing Value Source: NWS Daily Summary

Daily Weather History Graph

Daily Weather History Graph

Search for Another Location

Airport or City:

Trip Planner

Search our weather history database for the weather conditions in past years. The results will help you decide how hot, cold, wet, or windy it might be!

Date:

Astronomy

Sep. 06, 2012 Rise Set
Actual Time 6:53 AM CDT 7:36 PM CDT
Civil Twilight 6:28 AM CDT 8:02 PM CDT
Nautical Twilight 5:57 AM CDT 8:32 PM CDT
Astronomical Twilight 5:26 AM CDT 9:03 PM CDT
Moon 11:03 PM CDT (9/6) 12:39 PM CDT (9/6)
Length of Visible Light 13h 34m
Length of Day
12h 42m
Waning Gibbous, 67% of the Moon is Illuminated
Sep 6
Waning Gibbous
Sep 8
Last Quarter
Sep 15
New
Sep 22
First Quarter
Sep 29
Full

Hourly Weather History & Observations

Time (CDT) Temp. Heat Index Dew Point Humidity Pressure Visibility Wind Dir Wind Speed Gust Speed Precip Events Conditions
12:53 AM 79.0 °F - 70.0 °F 74% 29.83 in 10.0 mi Calm Calm - N/A   Clear
1:53 AM 78.1 °F - 69.1 °F 74% 29.83 in 10.0 mi Calm Calm - N/A   Clear
2:53 AM 79.0 °F - 69.1 °F 72% 29.84 in 10.0 mi Calm Calm - N/A   Clear
3:53 AM 78.1 °F - 68.0 °F 71% 29.85 in 10.0 mi Calm Calm - N/A   Clear
4:53 AM 75.9 °F - 69.1 °F 79% 29.85 in 10.0 mi NE 4.6 mph - N/A   Clear
5:53 AM 77.0 °F - 69.1 °F 76% 29.85 in 10.0 mi Calm Calm - N/A   Clear
6:53 AM 75.9 °F - 69.1 °F 79% 29.87 in 10.0 mi ENE 3.5 mph - N/A   Clear
7:53 AM 78.1 °F - 69.1 °F 74% 29.88 in 10.0 mi NE 4.6 mph - N/A   Clear
8:53 AM 82.0 °F 85.5 °F 69.1 °F 65% 29.88 in 10.0 mi East 3.5 mph - N/A   Clear
9:53 AM 86.0 °F 90.7 °F 70.0 °F 59% 29.89 in 10.0 mi NE 3.5 mph - N/A   Clear
10:53 AM 91.9 °F 96.9 °F 69.1 °F 47% 29.89 in 10.0 mi NNE 4.6 mph - N/A   Clear
11:53 AM 96.1 °F 101.0 °F 68.0 °F 40% 29.88 in 10.0 mi NNE 5.8 mph - N/A   Clear
12:53 PM 99.0 °F 102.9 °F 66.0 °F 34% 29.87 in 10.0 mi Variable 3.5 mph - N/A   Clear
1:53 PM 102.0 °F 106.6 °F 66.0 °F 31% 29.84 in 10.0 mi Variable 4.6 mph - N/A   Clear
2:53 PM 105.1 °F 108.5 °F 64.0 °F 26% 29.81 in 10.0 mi NE 8.1 mph 16.1 mph N/A   Partly Cloudy
3:53 PM 104.0 °F 105.3 °F 61.0 °F 24% 29.78 in 10.0 mi NE 8.1 mph - N/A   Scattered Clouds
4:00 PM 102.2 °F 103.6 °F 60.8 °F 26% 29.80 in 1.8 mi NE 8.1 mph - N/A   Haze
4:10 PM 102.2 °F 104.2 °F 62.6 °F 27% 29.79 in 10.0 mi East 8.1 mph - N/A   Mostly Cloudy
4:53 PM 91.0 °F 89.7 °F 57.0 °F 32% 29.79 in 7.0 mi South 21.9 mph 32.2 mph N/A   Overcast
5:01 PM 87.8 °F 87.6 °F 60.8 °F 40% 29.81 in 8.0 mi SSW 20.7 mph 41.4 mph 0.00 in Rain Light Rain
5:18 PM 82.4 °F 85.4 °F 68.0 °F 62% 29.82 in 6.0 mi West 23.0 mph 34.5 mph 0.02 in Rain Light Rain
5:53 PM 77.0 °F - 71.1 °F 82% 29.89 in 8.0 mi West 10.4 mph 23.0 mph 0.07 in Rain Light Rain
6:53 PM 77.0 °F - 73.0 °F 88% 29.86 in 10.0 mi East 8.1 mph - 0.01 in   Mostly Cloudy
7:53 PM 75.9 °F - 71.1 °F 85% 29.83 in 10.0 mi ENE 12.7 mph - 0.01 in   Partly Cloudy
8:53 PM 75.9 °F - 70.0 °F 82% 29.85 in 10.0 mi East 8.1 mph - N/A   Clear
9:53 PM 75.9 °F - 70.0 °F 82% 29.87 in 10.0 mi Variable 3.5 mph - N/A   Scattered Clouds
10:53 PM 75.9 °F - 69.1 °F 79% 29.86 in 10.0 mi NE 8.1 mph - N/A   Partly Cloudy
11:53 PM 75.0 °F - 70.0 °F 84% 29.86 in 10.0 mi ENE 6.9 mph - N/A   Partly Cloudy